Le nostre stazioni meteo in Italia

Pubblicità
Il mio iltempo24.it
Fucino, Italia (16227): Temperatura & dewpoint: 10.07.2018 20:00:00 - 16.07.2018 20:00:00 (CEST)Fucino, Italia (16227): velocità del vento: 10.07.2018 20:00:00 - 16.07.2018 20:00:00 (CEST)Fucino, Italia (16227): direzione del vento: 10.07.2018 20:00:00 - 16.07.2018 20:00:00 (CEST)Fucino, Italia (16227): precipitazioni: 10.07.2018 20:00:00 - 16.07.2018 20:00:00 (CEST)
Data & Tempo tt [°C] td [°C] ff [km/h] ff [kn] dd rr [mm]
16.07.2018 20:00:00 - - - - - -
16.07.2018 19:00:00 27,8 17,0 5 3 N -
16.07.2018 18:00:00 26,9 19,5 8 4 N -
16.07.2018 17:00:00 27,5 20,3 5 3 ENE -
16.07.2018 16:00:00 27,5 20,8 5 3 S -
16.07.2018 15:00:00 26,6 18,9 11 6 NO -
16.07.2018 14:00:00 28,1 14,6 21 11 OSO 0,0
16.07.2018 13:00:00 29,3 15,7 8 4 OSO -
16.07.2018 12:00:00 28,7 16,6 4 2 NO -
16.07.2018 11:00:00 26,6 20,1 2 1 SSE -
16.07.2018 10:00:00 25,2 19,7 2 1 OSO -
16.07.2018 09:00:00 23,3 20,6 2 1 S -
16.07.2018 08:00:00 20,4 19,0 0 0 N 0,0
16.07.2018 07:00:00 15,8 14,6 2 1 ESE -
16.07.2018 06:00:00 14,6 13,3 2 1 ENE -
16.07.2018 05:00:00 15,5 14,1 2 1 O -
16.07.2018 04:00:00 16,3 14,8 2 1 S -
16.07.2018 03:00:00 16,9 15,2 0 0 N -
16.07.2018 02:00:00 18,5 16,6 0 0 N 0,0
16.07.2018 01:00:00 21,5 17,4 2 1 SO -
16.07.2018 00:00:00 21,9 17,8 4 2 ESE -
15.07.2018 23:00:00 23,6 18,2 2 1 SE -
15.07.2018 22:00:00 25,5 17,6 4 2 SSO -
15.07.2018 21:00:00 27,0 16,2 5 3 OSO -
15.07.2018 20:00:00 29,0 16,2 9 5 ONO 0,0
15.07.2018 19:00:00 30,0 13,3 15 8 ONO -
15.07.2018 18:00:00 30,7 16,7 18 10 ONO -
15.07.2018 17:00:00 31,7 17,2 18 10 ONO -
15.07.2018 16:00:00 31,9 17,4 21 11 O -
15.07.2018 15:00:00 32,0 18,2 13 7 ONO -
15.07.2018 14:00:00 31,0 18,3 15 8 O 0,0
15.07.2018 13:00:00 30,8 20,1 8 4 OSO -
15.07.2018 12:00:00 29,2 19,2 4 2 E -
15.07.2018 11:00:00 27,5 21,0 4 2 N -
15.07.2018 10:00:00 26,2 21,1 4 2 NO -
15.07.2018 09:00:00 24,4 22,6 4 2 ESE -
15.07.2018 08:00:00 21,9 20,5 4 2 NO 0,0
15.07.2018 07:00:00 18,5 17,3 4 2 ESE -
15.07.2018 06:00:00 18,4 17,0 0 0 N -
15.07.2018 05:00:00 18,5 16,9 4 2 SSE -
15.07.2018 04:00:00 20,7 19,1 0 0 N -
15.07.2018 03:00:00 20,9 19,1 2 1 NNO -
15.07.2018 02:00:00 21,6 18,9 2 1 SE 0,0
15.07.2018 01:00:00 23,0 19,7 5 3 S -
15.07.2018 00:00:00 23,2 19,9 2 1 ESE -
14.07.2018 23:00:00 24,1 19,1 2 1 NE -
14.07.2018 22:00:00 26,8 17,2 4 2 ONO -
14.07.2018 21:00:00 28,1 17,0 5 3 ONO -
14.07.2018 20:00:00 28,6 17,7 5 3 O 0,0
14.07.2018 19:00:00 29,6 17,1 8 4 SO -
14.07.2018 18:00:00 32,0 16,7 8 4 ONO -
14.07.2018 17:00:00 31,8 16,5 9 5 O -
14.07.2018 16:00:00 33,3 14,4 4 2 E -
14.07.2018 15:00:00 31,8 12,6 5 3 NNO -
14.07.2018 14:00:00 30,8 13,6 5 3 NNO 0,0
14.07.2018 13:00:00 29,9 15,6 4 2 S -
14.07.2018 12:00:00 28,4 20,1 4 2 S -
14.07.2018 11:00:00 26,9 20,7 2 1 NE -
14.07.2018 10:00:00 24,9 20,3 2 1 SSE -
14.07.2018 09:00:00 23,2 21,0 2 1 O -
14.07.2018 08:00:00 20,3 19,2 2 1 NE 0,0
14.07.2018 07:00:00 16,7 15,5 2 1 NE -
14.07.2018 06:00:00 15,1 13,7 0 0 N -
14.07.2018 05:00:00 16,5 15,1 0 0 N -
14.07.2018 04:00:00 17,6 16,2 4 2 N -
14.07.2018 03:00:00 17,6 16,2 2 1 SE -
14.07.2018 02:00:00 18,1 16,4 2 1 NNE 0,0
14.07.2018 01:00:00 19,4 17,3 4 2 E -
14.07.2018 00:00:00 21,9 18,0 5 3 NE -
13.07.2018 23:00:00 23,1 17,7 8 4 E -
13.07.2018 22:00:00 24,1 18,7 5 3 S -
13.07.2018 21:00:00 26,0 17,3 4 2 SO -
13.07.2018 20:00:00 28,3 15,5 11 6 O 0,0
13.07.2018 19:00:00 29,3 14,3 13 7 ONO -
13.07.2018 18:00:00 29,8 13,9 18 10 ONO -
13.07.2018 17:00:00 30,8 14,4 16 9 ONO -
13.07.2018 16:00:00 30,9 15,3 15 8 O -
13.07.2018 15:00:00 31,0 15,0 13 7 O -
13.07.2018 14:00:00 30,8 16,0 5 3 SO 0,0
13.07.2018 13:00:00 29,5 17,3 4 2 SO -
13.07.2018 12:00:00 28,0 18,1 4 2 E -
13.07.2018 11:00:00 26,1 20,6 4 2 SSO -
13.07.2018 10:00:00 24,7 21,6 2 1 S -
13.07.2018 09:00:00 23,0 21,4 4 2 NNE -
13.07.2018 08:00:00 20,0 18,9 0 0 N 0,0
13.07.2018 07:00:00 16,2 15,2 2 1 SSO -
13.07.2018 06:00:00 14,9 13,7 0 0 N -
13.07.2018 05:00:00 16,0 14,8 2 1 NNO -
13.07.2018 04:00:00 16,5 15,1 2 1 S -
13.07.2018 03:00:00 17,5 16,1 2 1 ESE -
13.07.2018 02:00:00 18,7 17,3 4 2 SSO 0,0
13.07.2018 01:00:00 20,7 18,9 4 2 NNO -
13.07.2018 00:00:00 21,4 19,6 2 1 SSE -
12.07.2018 23:00:00 22,4 20,6 5 3 ESE -
12.07.2018 22:00:00 24,2 21,1 0 0 N -
12.07.2018 21:00:00 25,6 19,7 4 2 ONO -
12.07.2018 20:00:00 27,3 18,5 8 4 NO 0,0
12.07.2018 19:00:00 28,7 15,9 9 5 O -
12.07.2018 18:00:00 29,2 14,9 11 6 ONO -
12.07.2018 17:00:00 29,4 14,7 9 5 O -
12.07.2018 16:00:00 28,4 14,2 9 5 O -
12.07.2018 15:00:00 28,5 13,9 11 6 O -
12.07.2018 14:00:00 28,1 15,0 8 4 ONO 0,0
12.07.2018 13:00:00 28,4 16,9 8 4 O -
12.07.2018 12:00:00 27,2 17,0 5 3 NO -
12.07.2018 11:00:00 26,0 18,1 4 2 NNE -
12.07.2018 10:00:00 24,0 19,9 2 1 S -
12.07.2018 09:00:00 21,4 19,8 2 1 ENE -
12.07.2018 08:00:00 17,7 16,5 0 0 N 0,0
12.07.2018 07:00:00 14,4 13,2 2 1 SO -
12.07.2018 06:00:00 14,1 12,8 0 0 N -
12.07.2018 05:00:00 14,3 13,0 2 1 S -
12.07.2018 04:00:00 15,8 14,3 2 1 NO -
12.07.2018 03:00:00 17,2 15,5 0 0 N -
12.07.2018 02:00:00 18,4 16,7 5 3 SSE 0,0
12.07.2018 01:00:00 19,0 16,5 4 2 SSE -
12.07.2018 00:00:00 22,0 19,1 4 2 OSO -
11.07.2018 23:00:00 22,1 17,6 2 1 SSO -
11.07.2018 22:00:00 24,0 18,1 4 2 ONO -
11.07.2018 21:00:00 25,6 18,2 5 3 O -
11.07.2018 20:00:00 25,9 18,8 11 6 SO 0,0
11.07.2018 19:00:00 26,6 18,1 16 9 SSO -
11.07.2018 18:00:00 27,4 18,6 18 10 SSO -
11.07.2018 17:00:00 27,9 18,0 18 10 S -
11.07.2018 16:00:00 28,2 17,7 16 9 S -
11.07.2018 15:00:00 28,6 16,8 13 7 SO -
11.07.2018 14:00:00 27,7 16,6 15 8 SO 0,0
11.07.2018 13:00:00 27,8 16,1 15 8 O -
11.07.2018 12:00:00 27,0 15,6 8 4 NNO -
11.07.2018 11:00:00 25,9 15,2 4 2 N -
11.07.2018 10:00:00 24,5 19,9 4 2 E -
11.07.2018 09:00:00 22,3 20,5 2 1 SSE -
11.07.2018 08:00:00 18,4 17,4 0 0 N 0,0
11.07.2018 07:00:00 14,8 13,6 2 1 SSO -
11.07.2018 06:00:00 13,8 12,7 0 0 N -
11.07.2018 05:00:00 14,2 12,9 0 0 N -
11.07.2018 04:00:00 15,8 14,4 0 0 N -
11.07.2018 03:00:00 16,9 15,5 2 1 S -
11.07.2018 02:00:00 17,1 15,6 2 1 SO 0,0
11.07.2018 01:00:00 19,2 17,1 2 1 NNO -
11.07.2018 00:00:00 21,1 18,2 4 2 ESE -
10.07.2018 23:00:00 20,8 18,5 4 2 E -
10.07.2018 22:00:00 23,7 18,7 2 1 N -
10.07.2018 21:00:00 25,0 18,1 9 5 NNO -
10.07.2018 20:00:00 26,2 18,5 11 6 SO 0,0

tt = Temperatura
td = dewpoint
ff = velocità del vento
dd = direzione del vento
rr = precipitazioni

Stazioni seguenti

WeatherPro
AMSI
MeteoEarth